AO-07 1 07530U 74089B 21084.47150994 -.00000039 00000-0 41326-4 0 9990 2 07530 101.8457 59.0917 0012139 182.0131 292.8396 12.53647993121200 UO-11 1 14781U 84021B 21084.47427551 .00000201 00000-0 30678-4 0 9997 2 14781 97.5929 88.4530 0008532 8.3199 351.8156 14.83262719973483 LO-19 1 20442U 90005G 21084.48866233 .00000026 00000-0 26132-4 0 9997 2 20442 98.7318 39.2346 0012674 51.4168 308.8149 14.32980361628806 HUBBLE 1 20580U 90037B 21084.54715935 .00000842 00000-0 40076-4 0 9993 2 20580 28.4694 260.2455 0002516 238.1794 164.0284 15.09594380498406 MET-2/21 1 22782U 93055A 21084.30159441 .00000067 00000-0 46596-4 0 9992 2 22782 82.5534 10.6993 0022619 164.2526 9.6507 13.83835774391889 AO-27 1 22825U 93061C 21084.42155944 .00000019 00000-0 25295-4 0 9994 2 22825 98.9235 99.9509 0007366 280.7009 79.3342 14.30109599433971 IO-26 1 22826U 93061D 21084.48178421 .00000020 00000-0 25660-4 0 9994 2 22826 98.9176 99.9293 0007881 266.2516 93.7765 14.30447714434222 FO-29 1 24278U 96046B 21084.44973682 -.00000050 00000-0 -13802-4 0 9991 2 24278 98.5741 163.5291 0350460 7.4482 353.1676 13.53102471214880 NOAA-15 1 25338U 98030A 21084.51970869 .00000053 00000-0 40473-4 0 9991 2 25338 98.6918 113.7580 0010878 159.7855 200.3757 14.26018858189031 GO-32 1 25397U 98043D 21084.42268165 -.00000006 00000-0 16896-4 0 9990 2 25397 98.7627 30.2434 0001192 19.8782 340.2442 14.23704031179530 ISS 1 25544U 98067A 21084.87586133 .00001302 00000-0 31841-4 0 9993 2 25544 51.6457 34.7847 0003122 147.7604 312.3823 15.48941638275689 NO-44 1 26931U 01043C 21084.49461742 .00000011 00000-0 35832-4 0 9998 2 26931 67.0502 137.1184 0007407 266.2578 93.7677 14.30611135 17239 SO-50 1 27607U 02058C 21084.47394193 .00000098 00000-0 34461-4 0 9991 2 27607 64.5548 235.1404 0032170 54.6291 305.7810 14.75726840982169 CO-55 1 27844U 03031E 21084.76201562 .00000086 00000-0 58154-4 0 9997 2 27844 98.6830 94.2352 0009152 327.0330 33.0276 14.22296556920128 CO-57 1 27848U 03031J 21084.30813985 .00000067 00000-0 50436-4 0 9993 2 27848 98.6888 94.3557 0009296 342.3079 17.7773 14.21874985919858 RS-22 1 27939U 03042A 21084.62225072 .00000267 00000-0 56335-4 0 9991 2 27939 98.1247 222.3701 0013045 179.2152 180.9077 14.66959618935239 NOAA-18 1 28654U 05018A 21084.65349039 .00000094 00000-0 75340-4 0 9999 2 28654 99.0032 149.1532 0014888 155.4842 204.7040 14.12591972816703 CO-58 1 28895U 05043F 21084.35372697 .00000247 00000-0 56144-4 0 9998 2 28895 98.0438 219.4969 0018079 114.1995 246.1099 14.63883286821709 Falconsat-3 1 30776U 07006E 21084.62759211 .00006737 00000-0 16566-3 0 9994 2 30776 35.4338 278.6564 0002938 239.5117 120.5321 15.39981564780177 CO-65 1 32785U 08021C 21084.44883192 .00000482 00000-0 57301-4 0 9994 2 32785 97.6041 66.5899 0011451 283.7030 76.2913 14.88665805699678 AAUSAT2 1 32788U 08021F 21084.45329191 .00000965 00000-0 92119-4 0 9994 2 32788 97.5026 82.6503 0011452 184.5544 175.5575 14.95455973701305 DO-64 1 32789U 08021G 21084.52261814 .00003314 00000-0 21503-3 0 9999 2 32789 97.3860 123.0984 0013338 74.7766 285.4936 15.08660660704170 CO-66 1 32791U 08021J 21084.42763092 .00000714 00000-0 76990-4 0 9998 2 32791 97.5659 72.5593 0011718 243.6362 116.3654 14.91323890700339 RS-30 1 32953U 08025A 21084.60586177 .00000028 00000-0 12906-3 0 9993 2 32953 82.5002 103.0838 0019929 156.4040 203.7957 12.43100867582565 PRISM 1 33493U 09002B 21084.34264331 .00001248 00000-0 11243-3 0 9993 2 33493 98.1788 42.8871 0014510 201.5939 158.4671 14.97511272661739 NOAA-19 1 33591U 09005A 21084.60875561 .00000058 00000-0 56980-4 0 9993 2 33591 99.1907 103.2091 0014034 11.8653 348.2846 14.12457038625081 TISAT-1 1 36799U 10035E 21084.26773679 .00000921 00000-0 97673-4 0 9993 2 36799 98.2066 271.6714 0013210 126.3486 233.8952 14.91651018580788 JUGNU 1 37839U 11058B 21084.49376559 .00000328 00000-0 32982-4 0 9999 2 37839 19.9624 18.3872 0018810 246.2894 270.1593 14.12707953488573 SRMSAT 1 37841U 11058D 21084.40641833 .00000311 00000-0 25853-4 0 9994 2 37841 19.9717 89.0551 0012082 90.5764 51.1044 14.10688868487814 AO-71 1 37854U 11061E 21084.40381497 .00003070 00000-0 15725-3 0 9990 2 37854 101.7067 327.2068 0155257 305.9055 52.7831 15.08332867513818 HRBE 1 37855U 11061F 21084.53070263 .00003245 00000-0 16296-3 0 9999 2 37855 101.7207 324.4257 0167785 320.3415 38.5624 15.07366862513536 HORYU-2 1 38340U 12025D 21084.42415841 .00000319 00000-0 54101-4 0 9990 2 38340 98.2414 150.1851 0010755 218.3089 141.7357 14.75998916465998 RS-40 1 38735U 12041C 21084.45398521 .00000028 00000-0 13418-3 0 9996 2 38735 82.4817 185.4562 0015943 267.4086 92.5169 12.42582454392759 BEESAT-3 1 39135U 13015F 21084.51522912 .00002360 00000-0 12132-3 0 9996 2 39135 64.8666 113.1839 0009162 201.5395 158.5348 15.19084797437883 BEESAT-2 1 39136U 13015G 21084.47810807 .00002026 00000-0 10663-3 0 9991 2 39136 64.8749 119.3536 0028209 252.4473 107.3571 15.18464160437754 ZACUBE-1 1 39417U 13066B 21084.49670210 .00000513 00000-0 69884-4 0 9992 2 39417 97.5876 73.2016 0060203 76.7185 284.0733 14.81457113396642 TRITON-1 1 39427U 13066M 21084.42200119 .00000376 00000-0 67873-4 0 9996 2 39427 97.7661 36.3910 0111923 259.5741 99.2835 14.68185043392881 GOMX-1 1 39430U 13066Q 21084.62311712 .00000468 00000-0 93069-4 0 9992 2 39430 97.8112 12.5160 0151340 19.4059 341.2826 14.59563696390817 LO-74 1 39440U 13066AA 21084.40275100 .00000394 00000-0 61099-4 0 9995 2 39440 97.6675 57.9410 0080614 147.3215 213.3021 14.76188569394025 AO-73 1 39444U 13066AE 21084.46440591 .00000634 00000-0 83129-4 0 9998 2 39444 97.5790 75.5172 0059232 67.8727 292.8760 14.82351914394994 SPROUT 1 39770U 14029E 21084.57432654 .00001374 00000-0 15466-3 0 9993 2 39770 97.9055 195.9761 0010121 120.2342 239.9860 14.88268864370866 DUCHIFAT-1 1 40021U 14033M 21084.39534615 .00000862 00000-0 92442-4 0 9990 2 40021 97.9660 23.7362 0014299 81.8590 278.4250 14.91237368367755 NANOSATCBR1 1 40024U 14033Q 21084.24337727 .00000763 00000-0 84230-4 0 9998 2 40024 97.9462 18.9723 0013607 87.2011 273.0763 14.90351660367059 DTUSAT-2 1 40030U 14033W 21083.74733414 .00000564 00000-0 66001-4 0 9997 2 40030 97.9135 11.0312 0013310 92.8649 267.4091 14.88925907366712 EO-80 1 40032U 14033Y 21084.71614246 .00000546 00000-0 64124-4 0 9992 2 40032 97.9143 12.0046 0013296 90.8872 269.3868 14.88882558367355 ANTELSAT 1 40034U 14033AA 21084.51339508 .00000414 00000-0 68001-4 0 9999 2 40034 97.6869 292.2725 0058705 168.7507 191.5031 14.74427220363292 VELOX-1 1 40057U 14034E 21084.59447977 .00000513 00000-0 78648-4 0 9991 2 40057 98.3140 235.9491 0010118 332.4097 27.6579 14.78103995363156 DAURIA DX 1 1 40071U 14037C 21084.56611501 .00000163 00000-0 28384-4 0 9996 2 40071 98.4581 284.5920 0007578 323.7172 36.3537 14.81468394362872 HODOYOSHI-1 1 40299U 14070B 21084.56056273 .00001380 00000-0 58810-4 0 9993 2 40299 97.2921 160.3920 0011102 286.6890 180.3761 15.24559244354639 CHUBUSAT-1 1 40300U 14070C 21084.45331855 .00001507 00000-0 66674-4 0 9994 2 40300 97.2526 150.7172 0018404 307.2313 63.3863 15.23037430354277 QSAT-EOS 1 40301U 14070D 21084.55490128 .00003953 00000-0 14522-3 0 9996 2 40301 97.2606 158.3021 0022460 271.4401 195.6580 15.28269117354843 FIREBIRD FU3 1 40377U 15003B 21084.27797540 .00006514 00000-0 23880-3 0 9996 2 40377 99.0850 207.9938 0119998 95.0395 266.4546 15.21867221339980 FIREBIRD FU4 1 40378U 15003C 21084.32286886 .00006086 00000-0 22300-3 0 9999 2 40378 99.0854 208.1751 0120072 94.7123 266.7832 15.21916557339990 GRIFEX 1 40379U 15003D 21084.55093153 .00004999 00000-0 20316-3 0 9994 2 40379 99.0828 198.4816 0130371 124.4285 236.9347 15.17661991339464 NO-84 1 40654U 15025D 21083.39075339 .00030788 00000-0 25481-3 0 2368 2 40654 54.9828 81.7158 0086623 197.3879 162.3919 15.65146702212672 DEORBITSAIL 1 40719U 15032E 21084.48734380 .00000675 00000-0 10206-3 0 9994 2 40719 97.8393 331.7169 0017025 23.8477 336.3519 14.77281523307581 NUDT-PHONESAT 1 40900U 15049B 21084.58674763 .00005535 00000-0 21880-3 0 9993 2 40900 97.4252 99.2694 0013804 77.8775 17.8849 15.25812779306036 XW-2A 1 40903U 15049E 21084.56955953 .00005205 00000-0 11321-3 0 9990 2 40903 97.2471 139.2899 0011275 327.3501 170.2991 15.44699972309845 XW-2C 1 40906U 15049H 21084.58361668 .00001313 00000-0 70528-4 0 9990 2 40906 97.4865 87.9950 0016077 115.8011 32.2046 15.16569651304858 XW-2D 1 40907U 15049J 21084.59337459 .00001714 00000-0 90249-4 0 9990 2 40907 97.4850 87.7726 0015578 112.4528 26.2891 15.16869382304881 LILACSAT-2 1 40908U 15049K 21084.57755697 .00000556 00000-0 33841-4 0 9995 2 40908 97.5043 85.7212 0017032 126.2070 21.8033 15.14336971304539 XW-2E 1 40909U 15049L 21084.54711613 .00002578 00000-0 12528-3 0 9997 2 40909 97.4680 91.6292 0015034 101.7855 22.3704 15.19251112305191 XW-2F 1 40910U 15049M 21084.59321355 .00002426 00000-0 11969-3 0 9994 2 40910 97.4737 90.7480 0016122 101.1394 46.7277 15.18753597304991 XW-2B 1 40911U 15049N 21084.59322222 .00001648 00000-0 87096-4 0 9999 2 40911 97.4857 88.4642 0015478 113.3229 34.1789 15.16788085304777 DCBB 1 40912U 15049P 21084.58812302 .00002798 00000-0 12799-3 0 9996 2 40912 97.4484 95.0915 0016243 77.7308 17.1861 15.21254226305441 TW-1A 1 40928U 15051D 21084.56375813 .00007143 00000-0 15331-3 0 9999 2 40928 97.0856 111.4952 0008153 232.8059 278.5658 15.44972074308734 IO-86 1 40931U 15052B 21082.63239245 .00000653 00000-0 18305-5 0 9993 2 40931 5.9960 144.5257 0012575 273.4576 86.4114 14.76666986296594 LQSat 1 40958U 15057A 21084.59275591 .00000073 00000-0 18836-4 0 9992 2 40958 97.8130 144.2080 0017415 330.7451 29.2783 14.73163044293903 ATHENOXAT-1 1 41168U 15077C 21084.54485183 .00003537 00000-0 14581-3 0 9993 2 41168 14.9848 157.7514 0010011 82.9695 314.3386 15.15366646292035 ChubuSat-2 1 41338U 16012B 21084.18409108 .00000670 00000-0 45182-4 0 9992 2 41338 31.0043 1.7406 0013534 17.9392 342.1720 15.00474030279930 ChubuSat-3 1 41339U 16012C 21084.14898038 .00000590 00000-0 38842-4 0 9999 2 41339 31.0133 359.2766 0013574 25.0559 335.0746 15.00626297279922 Horyu-4 1 41340U 16012D 21084.41121868 .00001063 00000-0 72970-4 0 9997 2 41340 31.0061 342.2066 0013570 58.0029 302.1924 15.01799183280148 OUFTI-1 1 41458U 16025C 21084.40134960 .00002133 00000-0 10720-3 0 9990 2 41458 98.1288 216.5290 0159102 343.6184 15.9933 15.08187945269805 e-st@r-II 1 41459U 16025D 21084.60282915 .00002780 00000-0 13974-3 0 9999 2 41459 98.1263 215.8963 0160649 345.7076 13.9623 15.07653812269780 AAUSAT4 1 41460U 16025E 21084.59847374 .00003515 00000-0 16829-3 0 9994 2 41460 98.1243 219.3582 0148293 330.7041 28.5909 15.10504321270058 LO-87 1 41557U 16033B 21084.58144076 .00003443 00000-0 12435-3 0 9997 2 41557 97.3914 179.0251 0013439 165.3050 302.5771 15.29081802268717 NuSat2 1 41558U 16033C 21084.56394606 .00003688 00000-0 12478-3 0 9990 2 41558 97.4002 182.4465 0012692 159.5290 296.4488 15.31177951268881 Lapan A3 1 41603U 16040E 21084.60240704 .00000462 00000-0 24521-4 0 9993 2 41603 97.2678 134.6667 0011824 301.2460 211.6695 15.19987262263843 Swayam 1 41607U 16040J 21084.15105851 .00003433 00000-0 13846-3 0 9998 2 41607 97.2786 142.4507 0010947 276.4960 83.5032 15.25419859264199 Pratham 1 41783U 16059A 21084.41669437 .00000117 00000-0 31527-4 0 9990 2 41783 97.9758 137.3557 0034342 149.1323 211.1908 14.63122075239962 AlSat 1N 1 41789U 16059G 21084.60039272 .00000110 00000-0 29596-4 0 9991 2 41789 97.9791 141.0215 0029323 134.2754 226.0869 14.64400395240175 ScatSat 1 41790U 16059H 21084.56939747 .00000023 00000-0 17148-4 0 9997 2 41790 98.3802 126.8618 0006047 126.5585 233.6174 14.50800858237988 TY-1 1 41844U 16066D 21084.58313238 .00002073 00000-0 84310-4 0 9990 2 41844 97.4023 95.6696 0016464 75.2326 77.4823 15.25543527243116 Pegasus-1 1 41846U 16066F 21084.42458130 .00000718 00000-0 11696-3 0 9996 2 41846 98.6209 142.8579 0367249 115.9292 248.0224 14.37980937229348 CAS-2T 1 41847U 16066G 21084.43287811 .00000279 00000-0 51227-4 0 9991 2 41847 98.6120 143.1736 0366445 111.1187 252.9578 14.38164810229800 EO-88 1 42017U 17008BX 21084.40832615 .00003881 00000-0 14585-3 0 9990 2 42017 97.3245 153.5043 0007323 57.8340 302.3608 15.27734735228423 CAS-4B 1 42759U 17034B 21084.69232292 .00000523 00000-0 44893-4 0 9994 2 42759 43.0179 281.5443 0009719 351.8327 94.1966 15.10126387208486 CAS-4A 1 42761U 17034D 21084.61744626 .00000563 00000-0 47219-4 0 9997 2 42761 43.0182 281.0681 0010289 353.8122 68.6796 15.10207877208471 UCLSat 1 42765U 17036A 21084.38654532 .00003027 00000-0 12567-3 0 9998 2 42765 97.2611 136.5736 0012679 112.3401 247.9182 15.24509538209365 NIUSat 1 42766U 17036B 21084.39198852 .00002298 00000-0 10186-3 0 9992 2 42766 97.2617 133.2488 0016865 110.3060 249.9991 15.22463271208427 LituanicaSAT 2 1 42768U 17036D 21084.60683606 .00005416 00000-0 21457-3 0 9992 2 42768 97.2686 137.3401 0015779 102.5746 257.7259 15.25704515208686 Aalto 1 1 42775U 17036L 21084.10032660 .00001803 00000-0 80614-4 0 9990 2 42775 97.2588 133.2537 0015259 109.9894 250.2988 15.22457677208361 URSA MAIOR 1 42776U 17036M 21084.11678037 .00001804 00000-0 80094-4 0 9999 2 42776 97.2603 133.6887 0015112 109.6561 250.6308 15.22700731208382 Max Valier Sat 1 42778U 17036P 21084.23192989 .00002171 00000-0 94081-4 0 9990 2 42778 97.2666 135.5681 0013732 111.4708 248.7995 15.23341573208461 Pegasus 1 42784U 17036V 21084.08102099 .00002505 00000-0 10573-3 0 9997 2 42784 97.2621 135.8445 0013215 114.7193 245.5421 15.24109079208508 NUDATSat 1 42787U 17036Y 21084.58332511 .00003295 00000-0 13118-3 0 9994 2 42787 97.2670 138.4691 0012182 104.6625 255.5966 15.25868438208548 SUCHAI 1 1 42788U 17036Z 21084.31890967 .00003281 00000-0 13470-3 0 9996 2 42788 97.2631 136.9575 0012767 111.7446 248.5152 15.24834735208663 SKCUBE 1 42789U 17036AA 21084.13739467 .00003065 00000-0 12691-3 0 9998 2 42789 97.2623 136.5326 0012670 112.7630 247.4949 15.24599210208549 VZLUSAT 1 1 42790U 17036AB 21084.18270791 .00004028 00000-0 15982-3 0 9991 2 42790 97.2657 138.0699 0012106 109.3144 250.9405 15.25852744208635 VENTA 1 1 42791U 17036AC 21084.18174093 .00003001 00000-0 12444-3 0 9990 2 42791 97.2621 136.5984 0012349 112.9865 247.2677 15.24563322208546 Robusta 1B 1 42792U 17036AD 21084.18467315 .00003130 00000-0 12866-3 0 9994 2 42792 97.2627 136.9255 0012249 112.6317 247.6218 15.24827773208588 D-SAT 1 42794U 17036AF 21084.29917045 .00000572 00000-0 54222-4 0 9998 2 42794 97.4690 108.6328 0126645 146.5881 214.3412 14.91489168204518 TechnoSat 1 42829U 17042E 21084.51371254 .00000389 00000-0 44252-4 0 9993 2 42829 97.4823 318.4489 0015696 69.6484 290.6420 14.91241849201178 QIKCOM-1 1 42983U 98067NF 21084.67531529 .00011929 00000-0 12276-3 0 9992 2 42983 51.6380 324.6001 0003395 46.3468 313.7808 15.65337660194273 AO-91 1 43017U 17073E 21084.19812505 .00000835 00000-0 70155-4 0 9997 2 43017 97.7130 351.5114 0254525 214.9838 143.4424 14.79399525180669 EcAMSat 1 43019U 98067NG 21084.16056933 .00028267 00000-0 19073-3 0 9993 2 43019 51.6400 299.4898 0002323 39.0125 321.1042 15.74860638276886 PICSAT 1 43132U 18004X 21084.17390760 .00002960 00000-0 11959-3 0 9999 2 43132 97.4152 159.4723 0010376 138.5280 221.6747 15.25503814177837 AO-92 1 43137U 18004AC 21084.48238879 .00002571 00000-0 10594-3 0 9992 2 43137 97.4132 159.3640 0010019 139.6200 220.5783 15.24961349177866 TianYi 2 1 43155U 18008A 21084.57216196 .00001614 00000-0 96847-4 0 9997 2 43155 97.4109 152.0367 0015638 257.1214 239.1925 15.12228892175395 Zhou Enlai 1 43156U 18008B 21084.61111008 .00001598 00000-0 97104-4 0 9997 2 43156 97.4153 151.9095 0012885 255.7906 208.4721 15.11816649175344 TianYi 6 1 43158U 18008D 21084.24585436 .00001891 00000-0 11593-3 0 9991 2 43158 97.4100 150.2473 0012141 256.4856 144.4586 15.11276920175224 S-Net D 1 43186U 18014G 21084.33807717 .00000444 00000-0 43543-4 0 9992 2 43186 97.6820 353.4167 0011113 10.8477 349.2982 14.96997981171716 S-Net B 1 43187U 18014H 21084.20428390 .00000433 00000-0 42641-4 0 9991 2 43187 97.6818 353.2549 0011129 11.1173 349.0293 14.96997432171691 S-Net A 1 43188U 18014J 21084.67215993 .00000473 00000-0 46093-4 0 9995 2 43188 97.6821 353.7555 0011076 9.7694 350.3741 14.96996674171768 S-Net C 1 43189U 18014K 21084.33843333 .00000456 00000-0 44609-4 0 9996 2 43189 97.6817 353.3799 0011095 10.8152 349.3307 14.96996408170268 FMN 1 1 43192U 18015A 21084.63352176 .00006344 00000-0 23849-3 0 9998 2 43192 97.4732 219.6935 0015165 173.0468 244.6953 15.27410735174791 Shaonian Xing 1 43199U 18015H 21084.62516251 .00004419 00000-0 16861-3 0 9997 2 43199 97.4516 217.1412 0016125 182.9127 188.1936 15.27077719174850 SurfSat 1 43614U 18070B 21084.49155956 .00006412 00000-0 15369-3 0 9993 2 43614 93.0230 271.0921 0013213 339.7577 20.3153 15.41341317141730 CP-7 DAVE 1 43615U 18070C 21084.16920782 .00006033 00000-0 14587-3 0 9995 2 43615 93.0234 270.9248 0013434 340.8719 19.2030 15.41075617141672 ELFIN-B 1 43616U 18070D 21084.46776720 .00010586 00000-0 23582-3 0 9993 2 43616 93.0189 271.1478 0013254 338.1566 21.9123 15.43506941141810 ELFIN-A 1 43617U 18070E 21084.45085184 .00010426 00000-0 22928-3 0 9996 2 43617 93.0242 271.9078 0012531 334.9762 25.0885 15.43901743141824 STARS-Me Mother 1 43640U 98067PQ 21083.69173952 .00088014 00000-0 39841-3 0 9992 2 43640 51.6301 313.8466 0000230 354.8461 5.2540 15.83207730140807 CubeBel 1 1 43666U 18083E 21084.60366271 .00002626 00000-0 12815-3 0 9997 2 43666 97.4651 114.0055 0016481 100.6238 23.9421 15.19064744133284 Changshagaoxin 1 43669U 18083H 21084.59192939 .00001961 00000-0 99874-4 0 9998 2 43669 97.4549 111.3242 0012574 95.4851 21.5758 15.17903880133167 Ten-Koh 1 43677U 18084G 21084.33499677 .00000341 00000-0 40841-4 0 9990 2 43677 97.9069 207.2237 0014922 315.7935 44.2090 14.90423745130779 PO-101 1 43678U 18084H 21084.60718326 -.00000077 00000-0 -19362-5 0 9999 2 43678 97.9085 209.5196 0009394 337.0759 23.0019 14.91721444130937 IRVINE 01 1 43693U 18088D 21084.51140229 .00006293 00000-0 25108-3 0 9998 2 43693 85.0315 250.7070 0015947 342.0614 18.0065 15.24845366131645 QO-100 1 43700U 18090A 21084.08183281 .00000139 00000-0 00000-0 0 9991 2 43700 0.0109 233.5043 0002433 161.4259 203.0988 1.00273305 8522 Reaktor Hello World 1 43743U 18096AA 21084.66041221 .00003245 00000-0 11956-3 0 9991 2 43743 97.3911 162.8139 0016599 208.4639 151.5696 15.28432029129332 MinXSS-2 1 43758U 18099A 21084.42736965 .00000802 00000-0 76574-4 0 9994 2 43758 97.6741 157.3405 0014666 335.5829 24.4696 14.95961109125954 AO-95 1 43770U 18099N 21084.19961058 .00000863 00000-0 83513-4 0 9993 2 43770 97.6722 156.2225 0013866 345.1443 14.9369 14.95237545125866 RANGE-B 1 43772U 18099Q 21084.44502146 .00000407 00000-0 41886-4 0 9993 2 43772 97.6804 157.3316 0013260 330.8036 29.2443 14.95515619125907 RANGE-A 1 43773U 18099R 21084.46724729 .00000777 00000-0 75860-4 0 9998 2 43773 97.6660 155.8892 0012564 331.2187 28.8339 14.95152737125893 MOVE-II 1 43780U 18099Y 21084.19379264 .00001047 00000-0 98856-4 0 9997 2 43780 97.6734 156.6587 0012678 342.0525 18.0247 14.95790922125876 SNUSat 2 1 43782U 18099AA 21084.44680876 .00000230 00000-0 25927-4 0 9993 2 43782 97.6719 156.7763 0011873 330.4458 29.6090 14.95485846125915 SnugLite 1 43784U 18099AC 21084.19442157 .00000700 00000-0 68115-4 0 9993 2 43784 97.6683 156.2780 0014263 338.4052 21.6566 14.95602545125899 ITASat 1 1 43786U 18099AE 21084.20257506 .00000806 00000-0 77742-4 0 9992 2 43786 97.6741 156.8448 0014341 337.7943 22.2655 14.95543087125892 EAGLET 1 1 43790U 18099AJ 21084.45792837 .00000274 00000-0 29577-4 0 9997 2 43790 97.6727 157.4728 0012836 341.4979 18.5774 14.95913007125654 ESEO 1 43792U 18099AL 21084.43054094 .00000080 00000-0 12328-4 0 9994 2 43792 97.6701 157.1017 0012681 339.5719 20.4993 14.95707967125701 CSIM 1 43793U 18099AM 21084.43347966 .00000764 00000-0 72320-4 0 9995 2 43793 97.6725 157.3605 0012006 335.5875 24.4776 14.96451649125700 Astrocast 0.1 1 43798U 18099AS 21084.15105824 .00001123 00000-0 10491-3 0 9994 2 43798 97.6737 157.3378 0011138 322.0106 38.0329 14.96078627125917 JO-97 1 43803U 18099AX 21084.44741359 .00000295 00000-0 31570-4 0 9993 2 43803 97.6700 156.8474 0014401 336.7748 23.2821 14.95772353125936 Suomi 100 1 43804U 18099AY 21084.45139509 .00000360 00000-0 37384-4 0 9995 2 43804 97.6697 156.8243 0014435 336.8120 23.2448 14.95747094125948 Al Farabi 2 1 43805U 18099AZ 21084.59792289 .00000401 00000-0 40889-4 0 9991 2 43805 97.6719 157.1492 0014637 336.1751 23.8800 14.95937469125979 CHOMPTT 1 43855U 18104G 21084.26884326 .00002509 00000-0 10227-3 0 9994 2 43855 85.0409 349.3054 0019604 95.9698 264.3780 15.23729859126276 ISAT 1 43879U 18111D 21084.61975891 .00000793 00000-0 74681-4 0 9993 2 43879 97.6892 353.3406 0013689 29.5061 330.6944 14.96532790120512 UWE-4 1 43880U 18111E 21084.55429334 .00001229 00000-0 11230-3 0 9999 2 43880 97.6919 353.7011 0013014 32.0741 328.1270 14.96774632122537 Sparrow 1 43881U 18111F 21084.46118335 .00000429 00000-0 42470-4 0 9998 2 43881 97.6925 353.7259 0013197 28.0542 332.1389 14.96825516122528 Lume 1 1 43908U 18111AJ 21084.46609457 .00002554 00000-0 10183-3 0 9994 2 43908 97.2426 341.8364 0019281 225.6612 134.3048 15.25929106124864 FO-98 1 43933U 19003B 21084.42758855 .00015355 00000-0 61602-3 0 9991 2 43933 97.1941 129.0464 0015496 336.2437 23.8085 15.24964888121290 FO-99 1 43937U 19003F 21084.36490696 .00002932 00000-0 11818-3 0 9995 2 43937 97.1881 130.8852 0021943 313.6469 46.2949 15.25382862121448 MYSat 1 1 44045U 18092F 21084.28008965 .00006795 00000-0 18263-3 0 9990 2 44045 51.6376 116.6797 0009988 262.1186 97.8664 15.39062551118494 AstroCast 0.2 1 44083U 19018F 21084.24411006 .00002429 00000-0 10853-3 0 9998 2 44083 97.3827 146.8772 0011271 266.8593 93.1354 15.22247679110083 AISTechSat 3 1 44103U 19018AB 21084.56056498 .00001995 00000-0 85613-4 0 9990 2 44103 97.3689 147.5340 0011438 280.0166 189.7508 15.23834091110231 AISat 1 1 44104U 19018AC 21084.47304271 .00001895 00000-0 61542-4 0 9990 2 44104 97.4312 161.5058 0055455 294.9332 64.6153 15.31802915110814 Raavana-1 1 44329U 98067QE 21084.45826573 .00054122 00000-0 44717-3 0 9997 2 44329 51.6371 356.1464 0002716 345.9655 14.1266 15.69750782100932 Uguisu 1 44330U 98067QF 21084.11553000 .00046318 00000-0 38910-3 0 9990 2 44330 51.6346 358.2854 0002705 346.0797 14.0125 15.69415304100851 NepaliSat-1 1 44331U 98067QG 21084.45062776 .00052380 00000-0 43375-3 0 9990 2 44331 51.6342 356.0226 0002732 350.2522 9.8421 15.69710083100921 Prox-1 1 44339U 19036A 21084.47136630 .00001355 00000-0 26930-3 0 9994 2 44339 23.9995 143.0844 0011175 346.8956 13.1244 14.53446696 92961 Oculus-ASR 1 44348U 19036K 21084.39513191 .00029429 00000-0 41112-3 0 9997 2 44348 28.5130 332.2597 0339706 78.6512 285.2041 15.09683936 96188 Armadillo 1 44352U 19036P 21083.96541783 .00038561 00000-0 50986-3 0 9998 2 44352 28.5285 319.6036 0314141 97.6646 265.9734 15.15918678 96226 NO-104 1 44354U 19036R 21084.37313575 .00030884 00000-0 42177-3 0 9995 2 44354 28.5282 326.7255 0335089 85.8245 278.0565 15.11087511 96232 NO-103 1 44355U 19036S 21083.97784289 .00054305 00000-0 63644-3 0 9991 2 44355 28.5257 296.8367 0283880 134.3883 228.0330 15.24356285 96501 CP9 1 44360U 19036X 21084.56621311 .00099572 -42653-5 81084-3 0 9998 2 44360 28.5070 245.7962 0224127 219.1514 139.2675 15.42932044 96920 Move-IIb 1 44398U 19038N 21084.54411983 .00003011 00000-0 17177-3 0 9990 2 44398 97.5720 48.9896 0022807 237.7564 122.1454 15.13332150 95071 SONATE 1 44400U 19038Q 21084.62437740 .00001356 00000-0 81462-4 0 9991 2 44400 97.5797 49.0020 0023424 236.8485 123.0512 15.12403558 95062 BeeSat 9 1 44412U 19038AC 21084.42082328 .00001903 00000-0 11099-3 0 9996 2 44412 97.5783 49.0158 0020712 241.8104 118.1035 15.13035153 94745 JAISAT-1 1 44419U 19038F 21084.41745638 .00001821 00000-0 10503-3 0 9990 2 44419 97.5788 49.4932 0019600 239.9534 119.9753 15.13518958 95083 LightSail-2 1 44420U 19036AC 21084.36496144 .00011157 00000-0 22657-2 0 9994 2 44420 24.0078 128.4100 0019166 8.8087 351.2740 14.59230440 91269 Taurus 1 1 44530U 19059C 21084.65390019 .00000781 00000-0 23181-3 0 9992 2 44530 98.5507 174.2991 0014103 42.6143 317.6144 14.45961035 80972 Duchifat 3 1 44854U 19089C 21084.55566483 .00000943 00000-0 81952-4 0 9994 2 44854 36.9652 236.7501 0007347 189.7574 170.3034 14.99390097 70505 OPS-SAT 1 44878U 19092F 21084.45292056 .00002612 00000-0 13802-3 0 9998 2 44878 97.4733 269.1865 0015418 100.9337 259.3632 15.16284319 70103 TO-108 1 44881U 19093C 21084.64664393 .00000121 00000-0 22193-4 0 9998 2 44881 97.9280 164.3697 0014363 200.4414 159.6230 14.81432512 68326 FloripaSat 1 1 44885U 19093G 21084.64672450 .00000442 00000-0 61996-4 0 9995 2 44885 97.9297 164.8336 0014009 208.7201 151.3248 14.82232444 68359 RS-44 1 44909U 19096E 21083.95512117 .00000007 00000-0 -98806-5 0 9990 2 44909 82.5248 168.9548 0216235 290.7620 67.0432 12.79708977 58038 SwampSat-2 1 45115U 19071E 21084.47146745 .00055061 00000-0 10789-2 0 9991 2 45115 51.6372 72.2170 0009449 6.6432 353.4679 15.46789406 64410 HO-107 1 45119U 19071J 21084.46118860 .00005682 00000-0 17447-3 0 9994 2 45119 51.6414 83.9822 0011647 349.9185 10.1562 15.35195964 64264 Phoenix 1 45258U 98067RB 21084.54517157 .00014823 00000-0 22373-3 0 9992 2 45258 51.6410 28.2791 0004729 308.4938 51.5628 15.54972629 62149 AztechSat-1 1 45261U 98067RE 21084.27940880 .00037488 00000-0 44682-3 0 9998 2 45261 51.6389 23.5090 0004929 331.1255 28.9465 15.60690548 62214 QARMAN 1 45263U 98067RG 21084.41504667 .00029415 00000-0 38607-3 0 9996 2 45263 51.6404 25.9197 0005117 325.4816 34.5844 15.58268506 62224 Quetzal 1 1 45598U 98067RL 21084.23679080 .00025692 00000-0 35833-3 0 9990 2 45598 51.6414 29.9927 0002907 61.7693 298.3592 15.56722867 51421 BY70-2 1 45857U 20042B 21084.63539526 .00001358 00000-0 20073-3 0 9993 2 45857 97.9877 161.2545 0012913 122.8238 237.4242 14.76790711 39171 UPMSat 2 1 46276U 20061E 21084.48214243 .00001015 00000-0 55713-4 0 9999 2 46276 97.4387 159.9298 0000627 32.9517 327.1755 15.16341877 30815 AmicalSat 1 46287U 20061R 21084.23845856 .00001245 00000-0 79795-4 0 9995 2 46287 97.4939 159.3342 0003684 50.7173 309.4383 15.10312351 30635 SALSAT 1 46495U 20068K 21084.60002817 .00000188 00000-0 18340-4 0 9990 2 46495 97.6876 22.6297 0017443 3.3010 356.8328 15.03386935 26733 BY70-3 1 46839U 20079N 21084.60153873 .00005088 00000-0 16135-3 0 9996 2 46839 97.2460 160.1301 0008404 137.5160 359.9861 15.33105627 21356 SPOC 1 46921U 98067RR 21084.25895693 .00014596 00000-0 23884-3 0 9997 2 46921 51.6431 35.3924 0002857 112.6318 247.4975 15.52750506 21775 Bobcat-1 1 46922U 98067RS 21084.02521585 .00017132 00000-0 26937-3 0 9990 2 46922 51.6438 36.0892 0002662 112.3383 247.7890 15.53724205 21708 Neutron-1 1 46923U 98067RT 21084.13918988 .00012475 00000-0 20615-3 0 9992 2 46923 51.6430 36.0908 0002649 123.0188 237.1056 15.52629989 21783 CAPE 3 1 47309U 21002A 21084.41448125 .00001840 00000-0 95161-4 0 9991 2 47309 60.6829 246.0742 0027162 351.1748 8.8857 15.20473657 10106 OBJECT B 1 47310U 21002B 21084.46353885 .00003793 00000-0 18070-3 0 9998 2 47310 60.6810 245.7255 0025619 356.4014 3.6883 15.20938697 10092 AO-109 1 47311U 21002C 21084.44054085 .00002265 00000-0 11158-3 0 9990 2 47311 60.6869 245.6246 0022868 358.3791 1.7218 15.21390620 10081 OBJECT D 1 47312U 21002D 21084.42379586 .00013192 00000-0 57568-3 0 9991 2 47312 60.6862 245.5460 0022309 357.5517 2.5457 15.22274226 10076 OBJECT E 1 47313U 21002E 21084.41496255 .00003824 00000-0 17643-3 0 9995 2 47313 60.6841 245.4901 0023192 344.7968 15.2419 15.22079254 10086 MiTEE 1 1 47314U 21002F 21084.12691599 .00003663 00000-0 16707-3 0 9993 2 47314 60.6836 246.3442 0020733 342.7436 17.2944 15.22629528 10065 OBJECT G 1 47315U 21002G 21084.44193859 .00002798 00000-0 12960-3 0 9990 2 47315 60.6845 245.0441 0018446 345.2768 14.7779 15.22874873 10114 OBJECT J 1 47317U 21002J 21084.47728654 .00001719 00000-0 89582-4 0 9999 2 47317 60.6824 245.8089 0027063 350.9792 9.0803 15.20531987 10089 OBJECT K 1 47318U 21002K 21084.47598435 .00001685 00000-0 87984-4 0 9998 2 47318 60.6820 245.8007 0027003 350.9634 9.0962 15.20560191 10080 ExoCube 2 1 47319U 21002L 21084.45637078 .00002267 00000-0 11279-3 0 9994 2 47319 60.6829 245.6935 0024656 357.7880 2.3093 15.21011960 10051 OBJECT M 1 47320U 21002M 21084.44271152 .00002830 00000-0 13646-3 0 9998 2 47320 60.6853 245.6261 0023447 357.6249 2.4722 15.21363040 10135 OBJECT N 1 47345U 21002N 21084.41495061 .00003891 00000-0 17933-3 0 9990 2 47345 60.6841 245.4902 0023171 344.9036 15.1356 15.22077480 9825 UVSQ-SAT 1 47438U 21006AB 21084.12722130 .00001460 00000-0 86373-4 0 9990 2 47438 97.4973 146.8284 0013605 35.8503 324.3638 15.12945729 9305 YUSAT 1 1 47439U 21006AC 21084.12838183 .00001535 00000-0 90699-4 0 9996 2 47439 97.4975 146.8281 0013473 36.0726 324.1411 15.12917878 9309 SOMP 2b 1 47445U 21006AJ 21084.39757214 .00001495 00000-0 88728-4 0 9992 2 47445 97.4946 147.0559 0013294 38.5941 321.6238 15.12797391 9341 IDEASSat 1 47458U 21006AX 21084.20443416 .00001425 00000-0 85080-4 0 9993 2 47458 97.5036 146.9304 0012357 38.0264 322.1837 15.12660188 9315 RSP-01 1 47925U 98067SB 21084.14271293 .00013178 00000-0 23964-3 0 9998 2 47925 51.6439 38.3526 0003151 84.2278 275.9070 15.49861725 1699 TAUSAT-1 1 47926U 98067SC 21084.33462671 .00019822 00000-0 35265-3 0 9991 2 47926 51.6438 37.3844 0004499 85.2038 274.9465 15.50136799 1710 Tsuru 1 47927U 98067SD 21084.40058289 .00014200 00000-0 25751-3 0 9990 2 47927 51.6439 37.0747 0003185 83.6129 276.5222 15.49867759 1731 STARS-EC 1 47928U 98067SE 21084.40084881 .00012830 00000-0 23373-3 0 9993 2 47928 51.6434 37.0755 0006317 152.8327 207.2994 15.49825864 1711 /EX